Location: Gajan
(43.0218°N, 1.1244°E)
Time: 21:16:18
(UTC+00:00)

N. Korean satellite - Pass Details

Date: 02 October 2021
Orbit: 450 x 495 km, 97.3° (Epoch: 23 October)

Event Time Altitude Azimuth Distance (km) Brightness Sun altitude
Rises 04:56:54 0° 17° (NNE) 2,553 10.5 -11.3°
Reaches altitude 10° 04:59:00 10° 22° (NNE) 1,675 9.7 -10.9°
Maximum altitude 05:02:32 51° 100° (E) 619 7.5 -10.2°
Drops below altitude 10° 05:06:04 10° 177° (S) 1,680 9.3 -9.6°
Sets 05:08:10 0° 182° (S) 2,561 10.2 -9.2°
